Location: Unspecified
(48.2082°N, 0.0000°E)
Time: 01:15:00
(UTC+00:00)

Vanguard 1 - Pass Details

Date: 02 July 2019
Orbit: 655 x 3829 km, 34.2° (Epoch: 16 August)

Event Time Altitude Azimuth Distance (km) Brightness Sun altitude
Rises 02:03:08 0° 253° (WSW) 7,967 14.3 -13.9°
Reaches altitude 10° 02:09:00 10° 249° (WSW) 6,856 13.9 -13.4°
Maximum altitude 02:29:18 50° 183° (S) 3,475 12.5 -11.6°
Drops below altitude 10° 02:42:01 10° 113° (ESE) 4,470 13.6 -10.4°
Sets 02:44:56 0° 108° (ESE) 5,122 14.0 -10.1°
